Voltar ao catálogo

GEOSKAN-5

RS92S5

AtivoCiênciaSSO
NORAD 64891·PAYLOAD·🇷🇺 Russia
Este nome de satélite ainda não foi confirmado por fontes oficiais.

Lançado Jul 25, 2025 de Vostochny Cosmodrome

Loading…

Próximas Passagens (próximas 24 horas)

TLE

AtualizadoSource: Space-Track

Época: Sep 14, 2026, 14:48 UTC

1 64891U 25155R   26257.61730853  .00012800  00000-0  37324-3 0  9994
2 64891  97.4651 227.9712 0004658 201.4138 158.6911 15.35489903 94533

Acompanhe GEOSKAN-5 em tempo real com AllMySat

Download on the App Store